Time,TemperatureF,DewpointF,PressureIn,WindDirection,WindDirectionDegrees,WindSpeedMPH,WindSpeedGustMPH,Humidity,HourlyPrecipIn,Conditions,Clouds,dailyrainin,SoftwareType,DateUTC
2013-06-06 00:00:00,56.7,46.2,30.06,ENE,68,1.6,1.6,68,0.00,,CLR,0.00,VWS V14.01,2013-06-06 04:00:00,
2013-06-06 00:01:00,56.5,46.8,30.06,ENE,68,1.6,1.6,70,0.00,,CLR,0.00,VWS V14.01,2013-06-06 04:01:00,
2013-06-06 00:02:00,56.5,46.8,30.03,ENE,68,1.6,1.6,70,0.00,,CLR,0.00,VWS V14.01,2013-06-06 04:02:00,
2013-06-06 00:04:00,56.3,46.7,30.03,ENE,68,1.6,1.6,70,0.00,,CLR,0.00,VWS V14.01,2013-06-06 04:04:00,
2013-06-06 00:06:00,56.3,46.3,30.03,ENE,68,1.6,1.6,69,0.00,,CLR,0.00,VWS V14.01,2013-06-06 04:06:00,
2013-06-06 00:09:00,56.1,46.1,30.03,ENE,68,1.6,1.6,69,0.00,,CLR,0.00,VWS V14.01,2013-06-06 04:09:00,
2013-06-06 00:14:00,56.1,45.3,30.03,ENE,68,1.6,1.6,67,0.00,,CLR,0.00,VWS V14.01,2013-06-06 04:14:00,
2013-06-06 00:19:00,55.9,45.5,30.03,ENE,68,1.6,1.6,68,0.00,,CLR,0.00,VWS V14.01,2013-06-06 04:19:00,
2013-06-06 00:24:00,55.9,44.8,30.03,ENE,68,1.6,1.6,66,0.00,,CLR,0.00,VWS V14.01,2013-06-06 04:24:00,
2013-06-06 00:30:00,55.9,45.2,30.03,ENE,68,1.6,1.6,67,0.00,,CLR,0.00,VWS V14.01,2013-06-06 04:30:00,
2013-06-06 00:35:00,55.8,45.4,30.03,ENE,68,1.6,1.6,68,0.00,,CLR,0.00,VWS V14.01,2013-06-06 04:35:00,
2013-06-06 00:40:00,55.6,45.6,30.03,ENE,68,1.6,1.6,69,0.00,,CLR,0.00,VWS V14.01,2013-06-06 04:40:00,
2013-06-06 00:45:00,55.2,46.0,30.03,ENE,68,1.6,1.6,71,0.00,,CLR,0.00,VWS V14.01,2013-06-06 04:45:00,
2013-06-06 00:50:00,55.2,46.0,30.03,ENE,68,1.6,1.6,71,0.00,,CLR,0.00,VWS V14.01,2013-06-06 04:50:00,
2013-06-06 00:55:00,55.0,45.8,30.03,ENE,68,1.6,1.6,71,0.00,,CLR,0.00,VWS V14.01,2013-06-06 04:55:00,
2013-06-06 01:00:00,55.0,45.8,30.03,ENE,68,1.6,1.6,71,0.00,,CLR,0.00,VWS V14.01,2013-06-06 05:00:00,
2013-06-06 01:05:00,55.0,46.2,30.03,ENE,68,1.6,1.6,72,0.00,,CLR,0.00,VWS V14.01,2013-06-06 05:05:00,
2013-06-06 01:10:00,55.0,46.2,30.03,ENE,68,1.6,1.6,72,0.00,,CLR,0.00,VWS V14.01,2013-06-06 05:10:00,
2013-06-06 01:15:00,55.0,46.2,30.03,ENE,68,1.6,1.6,72,0.00,,CLR,0.00,VWS V14.01,2013-06-06 05:15:00,
2013-06-06 01:20:00,55.0,46.2,30.03,ENE,68,1.6,1.6,72,0.00,,CLR,0.00,VWS V14.01,2013-06-06 05:20:00,
2013-06-06 01:25:00,55.2,45.6,30.03,ENE,68,1.6,1.6,70,0.00,,CLR,0.00,VWS V14.01,2013-06-06 05:25:00,
2013-06-06 01:30:00,55.6,44.8,30.03,ENE,68,1.6,1.6,67,0.00,,CLR,0.00,VWS V14.01,2013-06-06 05:30:00,
2013-06-06 01:35:00,55.9,44.4,30.03,ENE,68,1.6,1.6,65,0.00,,CLR,0.00,VWS V14.01,2013-06-06 05:35:00,
2013-06-06 01:40:00,55.9,44.4,30.03,ENE,68,1.6,1.6,65,0.00,,CLR,0.00,VWS V14.01,2013-06-06 05:40:00,
2013-06-06 01:45:00,55.8,44.2,30.03,ENE,68,1.6,1.6,65,0.00,,CLR,0.00,VWS V14.01,2013-06-06 05:45:00,
2013-06-06 01:50:00,55.8,44.2,30.03,ENE,68,1.6,1.6,65,0.00,,CLR,0.00,VWS V14.01,2013-06-06 05:50:00,
2013-06-06 01:55:00,55.8,44.2,30.03,ENE,68,1.6,1.6,65,0.00,,CLR,0.00,VWS V14.01,2013-06-06 05:55:00,
2013-06-06 02:00:00,55.8,43.8,30.03,ENE,68,1.6,1.6,64,0.00,,CLR,0.00,VWS V14.01,2013-06-06 06:00:00,
2013-06-06 02:01:00,55.6,43.6,30.03,ENE,68,1.6,1.6,64,0.00,,CLR,0.00,VWS V14.01,2013-06-06 06:01:00,
2013-06-06 02:06:00,55.6,43.6,30.03,ENE,68,1.6,1.6,64,0.00,,CLR,0.00,VWS V14.01,2013-06-06 06:06:00,
2013-06-06 02:11:00,55.6,44.0,30.03,ENE,68,1.6,1.6,65,0.00,,CLR,0.00,VWS V14.01,2013-06-06 06:11:00,
2013-06-06 02:16:00,55.4,43.0,30.03,ENE,68,1.6,1.6,63,0.00,,CLR,0.00,VWS V14.01,2013-06-06 06:16:00,
2013-06-06 02:21:00,55.6,42.4,30.03,ENE,68,1.6,1.6,61,0.00,,CLR,0.00,VWS V14.01,2013-06-06 06:21:00,
2013-06-06 02:26:00,55.6,41.9,30.03,ENE,68,1.6,1.6,60,0.00,,CLR,0.00,VWS V14.01,2013-06-06 06:26:00,
2013-06-06 02:31:00,55.6,41.5,30.03,ENE,68,1.6,1.6,59,0.00,,CLR,0.00,VWS V14.01,2013-06-06 06:31:00,
2013-06-06 02:36:00,55.8,42.1,30.00,ENE,68,1.6,1.6,60,0.00,,CLR,0.00,VWS V14.01,2013-06-06 06:36:00,
2013-06-06 02:41:00,55.6,41.9,30.00,ENE,68,1.6,1.6,60,0.00,,CLR,0.00,VWS V14.01,2013-06-06 06:41:00,
2013-06-06 02:46:00,55.2,42.4,30.00,ENE,68,1.6,1.6,62,0.00,,CLR,0.00,VWS V14.01,2013-06-06 06:46:00,
2013-06-06 02:51:00,55.2,42.9,30.03,ENE,68,1.6,1.6,63,0.00,,CLR,0.00,VWS V14.01,2013-06-06 06:51:00,
2013-06-06 02:56:00,55.0,42.7,30.03,ENE,68,1.6,1.6,63,0.00,,CLR,0.00,VWS V14.01,2013-06-06 06:56:00,
2013-06-06 03:00:00,55.0,42.7,30.03,ENE,68,1.6,1.6,63,0.00,,CLR,0.00,VWS V14.01,2013-06-06 07:00:00,
2013-06-06 03:01:00,55.0,42.7,30.03,ENE,68,1.6,1.6,63,0.00,,CLR,0.00,VWS V14.01,2013-06-06 07:01:00,
2013-06-06 03:06:00,54.9,43.3,30.03,ENE,68,1.6,1.6,65,0.00,,CLR,0.00,VWS V14.01,2013-06-06 07:06:00,
2013-06-06 03:11:00,54.7,43.6,30.03,ENE,68,1.6,1.6,66,0.00,,CLR,0.00,VWS V14.01,2013-06-06 07:11:00,
2013-06-06 03:16:00,54.5,44.2,30.03,ENE,68,1.6,1.6,68,0.00,,CLR,0.00,VWS V14.01,2013-06-06 07:16:00,
2013-06-06 03:26:00,54.5,44.9,30.00,ENE,68,1.6,1.6,70,0.00,,CLR,0.00,VWS V14.01,2013-06-06 07:26:00,
2013-06-06 03:31:00,54.3,44.8,30.00,ENE,68,1.6,1.6,70,0.04,,CLR,0.04,VWS V14.01,2013-06-06 07:31:00,
2013-06-06 03:36:00,54.1,44.6,30.00,ENE,68,1.6,1.6,70,0.04,,CLR,0.04,VWS V14.01,2013-06-06 07:36:00,
2013-06-06 03:41:00,54.0,44.8,30.00,ENE,68,1.6,1.6,71,0.04,,CLR,0.04,VWS V14.01,2013-06-06 07:41:00,
2013-06-06 03:46:00,53.8,45.0,30.00,ENE,68,1.6,1.6,72,0.04,,CLR,0.04,VWS V14.01,2013-06-06 07:46:00,
2013-06-06 03:51:00,53.6,44.8,30.00,ENE,68,1.6,1.6,72,0.04,,CLR,0.04,VWS V14.01,2013-06-06 07:51:00,
2013-06-06 03:56:00,53.6,45.5,30.00,ENE,68,1.6,1.6,74,0.04,,CLR,0.04,VWS V14.01,2013-06-06 07:56:00,
2013-06-06 04:01:00,53.4,45.7,30.00,ENE,68,1.6,1.6,75,0.04,,CLR,0.04,VWS V14.01,2013-06-06 08:01:00,
2013-06-06 04:06:00,53.4,45.7,29.97,ENE,68,1.6,1.6,75,0.04,,CLR,0.04,VWS V14.01,2013-06-06 08:06:00,
2013-06-06 04:11:00,53.4,45.7,29.97,ENE,68,1.6,1.6,75,0.04,,CLR,0.04,VWS V14.01,2013-06-06 08:11:00,
2013-06-06 04:16:00,53.4,45.7,29.97,ENE,68,1.6,1.6,75,0.04,,CLR,0.04,VWS V14.01,2013-06-06 08:16:00,
2013-06-06 04:21:00,53.2,45.5,29.97,ENE,68,1.6,1.6,75,0.04,,CLR,0.04,VWS V14.01,2013-06-06 08:21:00,
2013-06-06 06:10:00,53.4,46.1,29.97,ENE,68,1.6,1.6,76,0.04,,CLR,0.04,VWS V14.01,2013-06-06 10:10:00,
2013-06-06 06:15:00,54.0,45.2,29.97,ENE,68,1.6,1.6,72,0.04,,CLR,0.04,VWS V14.01,2013-06-06 10:15:00,
2013-06-06 06:20:00,54.0,45.2,29.94,ENE,68,1.6,1.6,72,0.04,,CLR,0.04,VWS V14.01,2013-06-06 10:20:00,
2013-06-06 06:25:00,54.0,45.2,29.94,ENE,68,1.6,1.6,72,0.04,,CLR,0.04,VWS V14.01,2013-06-06 10:25:00,
2013-06-06 06:30:00,54.3,45.1,29.94,ENE,68,1.6,1.6,71,0.04,,CLR,0.04,VWS V14.01,2013-06-06 10:30:00,
2013-06-06 06:35:00,54.3,45.5,29.94,ENE,68,1.6,1.6,72,0.04,,CLR,0.04,VWS V14.01,2013-06-06 10:35:00,
2013-06-06 06:40:00,54.5,45.7,29.94,ENE,68,1.6,1.6,72,0.04,,CLR,0.04,VWS V14.01,2013-06-06 10:40:00,
2013-06-06 06:45:00,54.5,45.7,29.94,ENE,68,1.6,1.6,72,0.04,,CLR,0.04,VWS V14.01,2013-06-06 10:45:00,
2013-06-06 06:50:00,54.7,45.5,29.94,ENE,68,1.6,1.6,71,0.04,,CLR,0.04,VWS V14.01,2013-06-06 10:50:00,
2013-06-06 06:55:00,54.9,45.3,29.94,ENE,68,1.6,1.6,70,0.04,,CLR,0.04,VWS V14.01,2013-06-06 10:55:00,
2013-06-06 07:00:00,55.0,45.5,29.94,ENE,68,1.6,1.6,70,0.00,,CLR,0.04,VWS V14.01,2013-06-06 11:00:00,
2013-06-06 07:05:00,55.0,45.1,29.94,ENE,68,1.6,1.6,69,0.00,,CLR,0.04,VWS V14.01,2013-06-06 11:05:00,
2013-06-06 07:10:00,55.2,45.2,29.94,ENE,68,1.6,1.6,69,0.00,,CLR,0.04,VWS V14.01,2013-06-06 11:10:00,
2013-06-06 07:15:00,55.2,45.2,29.94,ENE,68,1.6,1.6,69,0.00,,CLR,0.04,VWS V14.01,2013-06-06 11:15:00,
2013-06-06 07:20:00,55.6,45.6,29.94,ENE,68,1.6,1.6,69,0.00,,CLR,0.04,VWS V14.01,2013-06-06 11:20:00,
2013-06-06 07:25:00,55.6,44.8,29.94,ENE,68,1.6,1.6,67,0.00,,CLR,0.04,VWS V14.01,2013-06-06 11:25:00,
2013-06-06 07:30:00,55.9,45.2,29.94,ENE,68,1.6,1.6,67,0.00,,CLR,0.04,VWS V14.01,2013-06-06 11:30:00,
2013-06-06 07:35:00,56.3,45.5,29.91,ENE,68,1.6,1.6,67,0.00,,CLR,0.04,VWS V14.01,2013-06-06 11:35:00,
2013-06-06 07:40:00,56.5,45.3,29.91,ENE,68,1.6,1.6,66,0.00,,CLR,0.04,VWS V14.01,2013-06-06 11:40:00,
2013-06-06 07:45:00,56.7,45.8,29.91,ENE,68,1.6,1.6,67,0.00,,CLR,0.04,VWS V14.01,2013-06-06 11:45:00,
2013-06-06 07:50:00,56.8,45.6,29.91,ENE,68,1.6,1.6,66,0.00,,CLR,0.04,VWS V14.01,2013-06-06 11:50:00,
2013-06-06 07:55:00,57.7,44.4,29.91,ENE,68,1.6,1.6,61,0.00,,CLR,0.04,VWS V14.01,2013-06-06 11:55:00,
2013-06-06 08:00:00,57.9,45.0,29.91,ENE,68,1.6,1.6,62,0.00,,CLR,0.04,VWS V14.01,2013-06-06 12:00:00,
2013-06-06 08:05:00,59.0,45.2,29.91,ENE,68,1.6,1.6,60,0.00,,CLR,0.04,VWS V14.01,2013-06-06 12:05:00,
2013-06-06 08:11:00,60.1,42.4,29.91,ENE,68,1.6,1.6,52,0.00,,CLR,0.04,VWS V14.01,2013-06-06 12:11:00,
2013-06-06 08:16:00,60.4,43.7,29.91,ENE,68,1.6,1.6,54,0.00,,CLR,0.04,VWS V14.01,2013-06-06 12:16:00,
2013-06-06 08:21:00,60.3,42.6,29.91,ENE,68,1.6,1.6,52,0.00,,CLR,0.04,VWS V14.01,2013-06-06 12:21:00,
2013-06-06 08:26:00,60.3,42.6,29.91,ENE,68,1.6,1.6,52,0.00,,CLR,0.04,VWS V14.01,2013-06-06 12:26:00,
2013-06-06 08:31:00,60.1,41.9,29.91,ENE,68,1.6,1.6,51,0.00,,CLR,0.04,VWS V14.01,2013-06-06 12:31:00,
2013-06-06 08:36:00,59.9,41.8,29.91,ENE,68,1.6,1.6,51,0.00,,CLR,0.04,VWS V14.01,2013-06-06 12:36:00,
2013-06-06 08:41:00,59.7,40.5,29.91,ENE,68,1.6,1.6,49,0.00,,CLR,0.04,VWS V14.01,2013-06-06 12:41:00,
2013-06-06 08:46:00,59.7,41.6,29.91,ENE,68,1.6,1.6,51,0.00,,CLR,0.04,VWS V14.01,2013-06-06 12:46:00,
2013-06-06 08:51:00,59.7,39.5,29.91,ENE,68,1.6,1.6,47,0.00,,CLR,0.04,VWS V14.01,2013-06-06 12:51:00,
2013-06-06 08:56:00,60.1,41.4,29.91,ENE,68,1.6,1.6,50,0.00,,CLR,0.04,VWS V14.01,2013-06-06 12:56:00,
2013-06-06 09:00:00,60.3,41.6,29.91,ENE,68,1.6,1.6,50,0.00,,CLR,0.04,VWS V14.01,2013-06-06 13:00:00,
2013-06-06 09:01:00,60.4,41.7,29.91,ENE,68,1.6,1.6,50,0.00,,CLR,0.04,VWS V14.01,2013-06-06 13:01:00,
2013-06-06 09:06:00,60.8,41.5,29.91,ENE,68,1.6,1.6,49,0.00,,CLR,0.04,VWS V14.01,2013-06-06 13:06:00,
2013-06-06 09:11:00,60.6,40.8,29.91,ENE,68,1.6,1.6,48,0.00,,CLR,0.04,VWS V14.01,2013-06-06 13:11:00,
2013-06-06 09:16:00,60.1,41.4,29.91,ENE,68,1.6,1.6,50,0.00,,CLR,0.04,VWS V14.01,2013-06-06 13:16:00,
2013-06-06 09:21:00,59.4,39.2,29.91,ENE,68,1.6,1.6,47,0.00,,CLR,0.04,VWS V14.01,2013-06-06 13:21:00,
2013-06-06 09:27:00,59.2,39.5,29.91,ENE,68,1.6,1.6,48,0.00,,CLR,0.04,VWS V14.01,2013-06-06 13:27:00,
2013-06-06 09:32:00,59.5,41.9,29.91,ENE,68,1.6,1.6,52,0.00,,CLR,0.04,VWS V14.01,2013-06-06 13:32:00,
2013-06-06 09:37:00,60.1,41.4,29.91,ENE,68,1.6,1.6,50,0.00,,CLR,0.04,VWS V14.01,2013-06-06 13:37:00,
2013-06-06 09:43:00,60.3,41.6,29.91,ENE,68,1.6,1.6,50,0.00,,CLR,0.04,VWS V14.01,2013-06-06 13:43:00,
2013-06-06 09:48:00,60.4,41.2,29.91,ENE,68,1.6,1.6,49,0.00,,CLR,0.04,VWS V14.01,2013-06-06 13:48:00,
2013-06-06 09:53:00,60.3,42.1,29.91,ENE,68,1.6,1.6,51,0.00,,CLR,0.04,VWS V14.01,2013-06-06 13:53:00,
2013-06-06 09:58:00,60.1,41.9,29.91,ENE,68,1.6,1.6,51,0.00,,CLR,0.04,VWS V14.01,2013-06-06 13:58:00,
2013-06-06 10:00:00,60.3,42.1,29.91,ENE,68,1.6,1.6,51,0.00,,CLR,0.04,VWS V14.01,2013-06-06 14:00:00,
2013-06-06 10:03:00,60.3,42.6,29.91,ENE,68,1.6,1.6,52,0.00,,CLR,0.04,VWS V14.01,2013-06-06 14:03:00,
2013-06-06 10:08:00,60.3,42.6,29.91,ENE,68,1.6,1.6,52,0.00,,CLR,0.04,VWS V14.01,2013-06-06 14:08:00,
2013-06-06 10:13:00,60.1,41.4,29.91,ENE,68,1.6,1.6,50,0.00,,CLR,0.04,VWS V14.01,2013-06-06 14:13:00,
2013-06-06 10:18:00,60.1,41.9,29.91,ENE,68,1.6,1.6,51,0.00,,CLR,0.04,VWS V14.01,2013-06-06 14:18:00,
2013-06-06 10:23:00,59.7,41.1,29.91,ENE,68,1.6,1.6,50,0.00,,CLR,0.04,VWS V14.01,2013-06-06 14:23:00,
2013-06-06 10:28:00,59.5,42.4,29.91,ENE,68,1.6,1.6,53,0.00,,CLR,0.04,VWS V14.01,2013-06-06 14:28:00,
2013-06-06 10:33:00,59.9,43.2,29.91,ENE,68,1.6,1.6,54,0.00,,CLR,0.04,VWS V14.01,2013-06-06 14:33:00,
2013-06-06 10:38:00,60.8,45.0,29.91,ENE,68,1.6,1.6,56,0.00,,CLR,0.04,VWS V14.01,2013-06-06 14:38:00,
2013-06-06 10:43:00,61.3,44.1,29.91,ENE,68,1.6,1.6,53,0.00,,CLR,0.04,VWS V14.01,2013-06-06 14:43:00,
2013-06-06 10:49:00,62.8,46.4,29.91,ENE,68,1.6,1.6,55,0.00,,CLR,0.04,VWS V14.01,2013-06-06 14:49:00,
2013-06-06 10:54:00,63.1,44.2,29.91,ENE,68,1.6,1.6,50,0.00,,CLR,0.04,VWS V14.01,2013-06-06 14:54:00,
2013-06-06 10:59:00,63.3,42.8,29.91,ENE,68,1.6,1.6,47,0.00,,CLR,0.04,VWS V14.01,2013-06-06 14:59:00,
2013-06-06 11:00:00,63.5,43.5,29.91,ENE,68,1.6,1.6,48,0.00,,CLR,0.04,VWS V14.01,2013-06-06 15:00:00,
2013-06-06 11:04:00,64.4,43.8,29.91,ENE,68,1.6,1.6,47,0.00,,CLR,0.04,VWS V14.01,2013-06-06 15:04:00,
2013-06-06 11:09:00,64.4,42.6,29.91,ENE,68,1.6,1.6,45,0.00,,CLR,0.04,VWS V14.01,2013-06-06 15:09:00,
2013-06-06 11:14:00,64.6,43.4,29.91,ENE,68,1.6,1.6,46,0.00,,CLR,0.04,VWS V14.01,2013-06-06 15:14:00,
2013-06-06 11:19:00,64.2,43.0,29.91,ENE,68,1.6,1.6,46,0.00,,CLR,0.04,VWS V14.01,2013-06-06 15:19:00,
2013-06-06 11:24:00,63.7,42.0,29.91,ENE,68,1.6,1.6,45,0.00,,CLR,0.04,VWS V14.01,2013-06-06 15:24:00,
2013-06-06 11:29:00,64.2,43.6,29.91,ENE,68,1.6,1.6,47,0.00,,CLR,0.04,VWS V14.01,2013-06-06 15:29:00,
2013-06-06 11:34:00,63.9,43.8,29.91,ENE,68,1.6,1.6,48,0.00,,CLR,0.04,VWS V14.01,2013-06-06 15:34:00,
2013-06-06 11:39:00,63.9,43.3,29.91,ENE,68,1.6,1.6,47,0.00,,CLR,0.04,VWS V14.01,2013-06-06 15:39:00,
2013-06-06 11:44:00,63.9,42.7,29.91,ENE,68,1.6,1.6,46,0.00,,CLR,0.04,VWS V14.01,2013-06-06 15:44:00,
2013-06-06 11:49:00,64.0,44.0,29.91,ENE,68,1.6,1.6,48,0.00,,CLR,0.04,VWS V14.01,2013-06-06 15:49:00,
2013-06-06 11:55:00,64.9,43.7,29.91,ENE,68,1.6,1.6,46,0.00,,CLR,0.04,VWS V14.01,2013-06-06 15:55:00,
2013-06-06 12:00:00,65.5,43.6,29.91,ENE,68,1.6,1.6,45,0.00,,CLR,0.04,VWS V14.01,2013-06-06 16:00:00,
2013-06-06 12:05:00,66.0,44.7,29.91,ENE,68,1.6,1.6,46,0.00,,CLR,0.04,VWS V14.01,2013-06-06 16:05:00,
2013-06-06 12:10:00,66.4,45.0,29.91,ENE,68,1.6,1.6,46,0.00,,CLR,0.04,VWS V14.01,2013-06-06 16:10:00,
2013-06-06 12:15:00,66.6,44.6,29.91,ENE,68,1.6,1.6,45,0.00,,CLR,0.04,VWS V14.01,2013-06-06 16:15:00,
2013-06-06 12:20:00,66.2,45.4,29.91,ENE,68,1.6,1.6,47,0.00,,CLR,0.04,VWS V14.01,2013-06-06 16:20:00,
2013-06-06 12:25:00,65.8,43.3,29.91,ENE,68,1.6,1.6,44,0.00,,CLR,0.04,VWS V14.01,2013-06-06 16:25:00,
2013-06-06 12:30:00,66.0,43.5,29.91,ENE,68,1.6,1.6,44,0.00,,CLR,0.04,VWS V14.01,2013-06-06 16:30:00,
2013-06-06 12:35:00,66.0,45.8,29.91,ENE,68,1.6,1.6,48,0.00,,CLR,0.04,VWS V14.01,2013-06-06 16:35:00,
2013-06-06 12:40:00,64.8,43.0,29.91,ENE,68,1.6,1.6,45,0.00,,CLR,0.04,VWS V14.01,2013-06-06 16:40:00,
2013-06-06 12:45:00,64.9,43.7,29.91,ENE,68,1.6,1.6,46,0.00,,CLR,0.04,VWS V14.01,2013-06-06 16:45:00,
2013-06-06 12:50:00,65.8,46.2,29.91,ENE,68,1.6,1.6,49,0.00,,CLR,0.04,VWS V14.01,2013-06-06 16:50:00,
2013-06-06 12:55:00,67.1,46.2,29.91,ENE,68,1.6,1.6,47,0.00,,CLR,0.04,VWS V14.01,2013-06-06 16:55:00,
2013-06-06 13:00:00,67.6,45.6,29.91,ENE,68,1.6,1.6,45,0.00,,CLR,0.04,VWS V14.01,2013-06-06 17:00:00,
2013-06-06 13:01:00,68.0,45.9,29.91,ENE,68,1.6,1.6,45,0.00,,CLR,0.04,VWS V14.01,2013-06-06 17:01:00,
2013-06-06 13:06:00,67.1,45.1,29.88,ENE,68,1.6,1.6,45,0.00,,CLR,0.04,VWS V14.01,2013-06-06 17:06:00,
2013-06-06 13:11:00,67.5,45.4,29.88,NNE,22,7.4,7.4,45,0.00,,CLR,0.04,VWS V14.01,2013-06-06 17:11:00,
2013-06-06 13:16:00,67.8,45.1,29.88,NNE,22,7.4,7.4,44,0.00,,CLR,0.04,VWS V14.01,2013-06-06 17:16:00,
2013-06-06 13:21:00,67.6,46.1,29.88,NNE,22,7.4,7.4,46,0.00,,CLR,0.04,VWS V14.01,2013-06-06 17:21:00,
2013-06-06 13:26:00,65.7,43.2,29.88,NNE,22,7.4,7.4,44,0.00,,CLR,0.04,VWS V14.01,2013-06-06 17:26:00,
2013-06-06 13:31:00,65.7,44.9,29.88,NNE,22,7.4,7.4,47,0.00,,CLR,0.04,VWS V14.01,2013-06-06 17:31:00,
2013-06-06 13:37:00,65.8,45.1,29.85,NNE,22,7.4,7.4,47,0.00,,CLR,0.04,VWS V14.01,2013-06-06 17:37:00,
2013-06-06 13:42:00,67.3,46.4,29.85,NNE,22,7.4,7.4,47,0.00,,CLR,0.04,VWS V14.01,2013-06-06 17:42:00,
2013-06-06 13:47:00,67.3,47.5,29.85,NNE,22,7.4,7.4,49,0.00,,CLR,0.04,VWS V14.01,2013-06-06 17:47:00,
2013-06-06 13:52:00,69.1,46.3,29.85,NNE,22,7.4,7.4,44,0.00,,CLR,0.04,VWS V14.01,2013-06-06 17:52:00,
2013-06-06 13:57:00,67.3,44.7,29.85,NNE,22,7.4,7.4,44,0.00,,CLR,0.04,VWS V14.01,2013-06-06 17:57:00,
2013-06-06 14:00:00,68.5,46.4,29.85,NNE,22,7.4,7.4,45,0.00,,CLR,0.04,VWS V14.01,2013-06-06 18:00:00,
2013-06-06 14:02:00,69.3,46.4,29.85,NNE,22,7.4,7.4,44,0.00,,CLR,0.04,VWS V14.01,2013-06-06 18:02:00,
2013-06-06 14:07:00,69.6,46.2,29.85,NNE,22,7.4,7.4,43,0.00,,CLR,0.04,VWS V14.01,2013-06-06 18:07:00,
2013-06-06 14:12:00,68.9,47.3,29.85,NNE,22,7.4,7.4,46,0.00,,CLR,0.04,VWS V14.01,2013-06-06 18:12:00,
2013-06-06 14:17:00,70.2,46.6,29.85,NNE,22,7.4,7.4,43,0.00,,CLR,0.04,VWS V14.01,2013-06-06 18:17:00,
2013-06-06 14:22:00,70.7,47.1,29.85,NNE,22,7.4,7.4,43,0.00,,CLR,0.04,VWS V14.01,2013-06-06 18:22:00,
2013-06-06 14:27:00,70.2,46.0,29.85,NNE,22,7.4,7.4,42,0.00,,CLR,0.04,VWS V14.01,2013-06-06 18:27:00,
2013-06-06 14:33:00,69.4,44.7,29.85,NNE,22,7.4,7.4,41,0.00,,CLR,0.04,VWS V14.01,2013-06-06 18:33:00,
2013-06-06 14:38:00,70.0,46.5,29.85,NNE,22,7.4,7.4,43,0.00,,CLR,0.04,VWS V14.01,2013-06-06 18:38:00,
2013-06-06 14:43:00,69.3,45.2,29.85,NNE,22,7.4,7.4,42,0.00,,CLR,0.04,VWS V14.01,2013-06-06 18:43:00,
2013-06-06 14:48:00,69.4,46.6,29.85,NNE,22,7.4,7.4,44,0.00,,CLR,0.04,VWS V14.01,2013-06-06 18:48:00,
2013-06-06 14:53:00,69.3,46.4,29.85,NNE,22,7.4,7.4,44,0.00,,CLR,0.04,VWS V14.01,2013-06-06 18:53:00,
2013-06-06 14:58:00,68.2,44.9,29.85,NNE,22,7.4,7.4,43,0.00,,CLR,0.04,VWS V14.01,2013-06-06 18:58:00,
2013-06-06 15:00:00,68.4,46.2,29.85,NNE,22,7.4,7.4,45,0.00,,CLR,0.04,VWS V14.01,2013-06-06 19:00:00,
2013-06-06 15:03:00,68.5,47.0,29.82,NNE,22,7.4,7.4,46,0.00,,CLR,0.04,VWS V14.01,2013-06-06 19:03:00,
2013-06-06 15:08:00,68.0,45.3,29.82,NNE,22,7.4,7.4,44,0.00,,CLR,0.04,VWS V14.01,2013-06-06 19:08:00,
2013-06-06 15:13:00,68.4,46.2,29.82,NNE,22,7.4,7.4,45,0.00,,CLR,0.04,VWS V14.01,2013-06-06 19:13:00,
2013-06-06 15:18:00,68.9,47.3,29.82,NNE,22,7.4,7.4,46,0.00,,CLR,0.04,VWS V14.01,2013-06-06 19:18:00,
2013-06-06 15:23:00,68.9,46.1,29.82,NNE,22,7.4,7.4,44,0.00,,CLR,0.04,VWS V14.01,2013-06-06 19:23:00,
2013-06-06 15:28:00,68.9,45.5,29.82,NNE,22,7.4,7.4,43,0.00,,CLR,0.04,VWS V14.01,2013-06-06 19:28:00,
2013-06-06 15:33:00,69.1,45.7,29.82,NNE,22,7.4,7.4,43,0.00,,CLR,0.04,VWS V14.01,2013-06-06 19:33:00,
2013-06-06 15:35:00,69.1,46.9,29.82,NNE,22,7.4,7.4,45,0.00,,CLR,0.04,VWS V14.01,2013-06-06 19:35:00,
2013-06-06 15:40:00,69.1,46.3,29.82,NNE,22,7.4,7.4,44,0.00,,CLR,0.04,VWS V14.01,2013-06-06 19:40:00,
2013-06-06 15:46:00,68.5,45.8,29.82,NNE,22,7.4,7.4,44,0.00,,CLR,0.04,VWS V14.01,2013-06-06 19:46:00,
2013-06-06 15:51:00,68.9,47.3,29.82,NNE,22,7.4,7.4,46,0.00,,CLR,0.04,VWS V14.01,2013-06-06 19:51:00,
2013-06-06 15:56:00,69.3,46.4,29.82,NNE,22,7.4,7.4,44,0.00,,CLR,0.04,VWS V14.01,2013-06-06 19:56:00,
2013-06-06 16:00:00,68.9,46.1,29.82,NNE,22,7.4,7.4,44,0.00,,CLR,0.04,VWS V14.01,2013-06-06 20:00:00,
2013-06-06 16:01:00,68.9,46.7,29.82,NNE,22,7.4,7.4,45,0.00,,CLR,0.04,VWS V14.01,2013-06-06 20:01:00,
2013-06-06 16:06:00,68.2,46.0,29.82,NNE,22,7.4,7.4,45,0.00,,CLR,0.04,VWS V14.01,2013-06-06 20:06:00,
2013-06-06 16:11:00,68.0,45.9,29.82,NNE,22,7.4,7.4,45,0.00,,CLR,0.04,VWS V14.01,2013-06-06 20:11:00,
2013-06-06 16:16:00,68.4,46.8,29.82,NNE,22,7.4,7.4,46,0.00,,CLR,0.04,VWS V14.01,2013-06-06 20:16:00,
2013-06-06 16:21:00,69.8,48.7,29.82,NNE,22,7.4,7.4,47,0.00,,CLR,0.04,VWS V14.01,2013-06-06 20:21:00,
2013-06-06 16:27:00,68.4,45.6,29.82,NNE,22,7.4,7.4,44,0.00,,CLR,0.04,VWS V14.01,2013-06-06 20:27:00,
2013-06-06 16:32:00,67.1,44.5,29.82,NNE,22,7.4,7.4,44,0.00,,CLR,0.04,VWS V14.01,2013-06-06 20:32:00,
2013-06-06 16:37:00,66.4,45.0,29.82,NNE,22,7.4,7.4,46,0.00,,CLR,0.04,VWS V14.01,2013-06-06 20:37:00,
2013-06-06 16:43:00,66.0,45.2,29.82,NNE,22,7.4,7.4,47,0.00,,CLR,0.04,VWS V14.01,2013-06-06 20:43:00,
2013-06-06 16:48:00,65.7,44.9,29.82,NNE,22,7.4,7.4,47,0.00,,CLR,0.04,VWS V14.01,2013-06-06 20:48:00,
2013-06-06 16:53:00,65.7,46.0,29.82,NNE,22,7.4,7.4,49,0.00,,CLR,0.04,VWS V14.01,2013-06-06 20:53:00,
2013-06-06 16:58:00,65.1,44.4,29.82,NNE,22,7.4,7.4,47,0.00,,CLR,0.04,VWS V14.01,2013-06-06 20:58:00,
2013-06-06 17:00:00,65.3,45.7,29.82,NNE,22,7.4,7.4,49,0.00,,CLR,0.04,VWS V14.01,2013-06-06 21:00:00,
2013-06-06 17:03:00,64.8,44.6,29.82,NNE,22,7.4,7.4,48,0.00,,CLR,0.04,VWS V14.01,2013-06-06 21:03:00,
2013-06-06 17:08:00,64.4,44.8,29.82,NNE,22,7.4,7.4,49,0.00,,CLR,0.04,VWS V14.01,2013-06-06 21:08:00,
2013-06-06 17:13:00,63.9,44.9,29.82,NNE,22,7.4,7.4,50,0.00,,CLR,0.04,VWS V14.01,2013-06-06 21:13:00,
2013-06-06 17:18:00,63.5,45.1,29.85,NNE,22,7.4,7.4,51,0.00,,CLR,0.04,VWS V14.01,2013-06-06 21:18:00,
2013-06-06 17:23:00,63.1,45.8,29.85,NNE,22,7.4,7.4,53,0.00,,CLR,0.04,VWS V14.01,2013-06-06 21:23:00,
2013-06-06 17:28:00,63.0,46.1,29.85,NNE,22,7.4,7.4,54,0.00,,CLR,0.04,VWS V14.01,2013-06-06 21:28:00,
2013-06-06 17:33:00,62.6,45.2,29.85,NNE,22,7.4,7.4,53,0.00,,CLR,0.04,VWS V14.01,2013-06-06 21:33:00,
2013-06-06 17:38:00,62.6,45.2,29.85,NNE,22,7.4,7.4,53,0.00,,CLR,0.04,VWS V14.01,2013-06-06 21:38:00,
2013-06-06 17:43:00,62.4,46.5,29.85,NNE,22,7.4,7.4,56,0.00,,CLR,0.04,VWS V14.01,2013-06-06 21:43:00,
2013-06-06 17:49:00,62.4,47.0,29.85,NNE,22,7.4,7.4,57,0.00,,CLR,0.04,VWS V14.01,2013-06-06 21:49:00,
2013-06-06 17:54:00,62.1,46.2,29.85,NNE,22,7.4,7.4,56,0.00,,CLR,0.04,VWS V14.01,2013-06-06 21:54:00,
2013-06-06 17:59:00,62.1,46.7,29.85,NNE,22,7.4,7.4,57,0.00,,CLR,0.04,VWS V14.01,2013-06-06 21:59:00,
2013-06-06 18:00:00,62.1,46.7,29.85,NNE,22,7.4,7.4,57,0.00,,CLR,0.04,VWS V14.01,2013-06-06 22:00:00,
2013-06-06 18:04:00,61.7,46.3,29.85,NNE,22,7.4,7.4,57,0.00,,CLR,0.04,VWS V14.01,2013-06-06 22:04:00,
2013-06-06 18:09:00,61.9,47.9,29.85,NNE,22,7.4,7.4,60,0.00,,CLR,0.04,VWS V14.01,2013-06-06 22:09:00,
2013-06-06 18:14:00,62.1,48.0,29.85,NNE,22,7.4,7.4,60,0.00,,CLR,0.04,VWS V14.01,2013-06-06 22:14:00,
2013-06-06 18:19:00,62.2,47.8,29.82,NNE,22,7.4,7.4,59,0.00,,CLR,0.04,VWS V14.01,2013-06-06 22:19:00,
2013-06-06 18:25:00,62.1,47.6,29.82,NNE,22,7.4,7.4,59,0.00,,CLR,0.04,VWS V14.01,2013-06-06 22:25:00,
2013-06-06 18:30:00,61.9,47.0,29.82,NNE,22,7.4,7.4,58,0.00,,CLR,0.04,VWS V14.01,2013-06-06 22:30:00,
2013-06-06 18:35:00,62.1,47.1,29.85,NNE,22,7.4,7.4,58,0.00,,CLR,0.04,VWS V14.01,2013-06-06 22:35:00,
2013-06-06 18:40:00,62.1,47.6,29.85,NNE,22,7.4,7.4,59,0.00,,CLR,0.04,VWS V14.01,2013-06-06 22:40:00,
2013-06-06 18:45:00,61.9,47.9,29.85,NNE,22,7.4,7.4,60,0.00,,CLR,0.04,VWS V14.01,2013-06-06 22:45:00,
2013-06-06 18:50:00,61.3,47.3,29.85,NNE,22,7.4,7.4,60,0.00,,CLR,0.04,VWS V14.01,2013-06-06 22:50:00,
2013-06-06 18:55:00,60.8,46.8,29.85,NNE,22,7.4,7.4,60,0.00,,CLR,0.04,VWS V14.01,2013-06-06 22:55:00,
2013-06-06 19:00:00,60.3,46.8,29.85,NNE,22,7.4,7.4,61,0.00,,CLR,0.04,VWS V14.01,2013-06-06 23:00:00,
2013-06-06 19:05:00,60.1,46.2,29.85,NNE,22,7.4,7.4,60,0.00,,CLR,0.04,VWS V14.01,2013-06-06 23:05:00,
2013-06-06 19:10:00,60.1,47.0,29.85,NNE,22,7.4,7.4,62,0.00,,CLR,0.04,VWS V14.01,2013-06-06 23:10:00,
2013-06-06 19:15:00,59.9,46.4,29.85,NNE,22,7.4,7.4,61,0.00,,CLR,0.04,VWS V14.01,2013-06-06 23:15:00,
2013-06-06 19:20:00,60.1,47.9,29.85,NNE,22,7.4,7.4,64,0.00,,CLR,0.04,VWS V14.01,2013-06-06 23:20:00,
2013-06-06 19:26:00,60.3,47.6,29.85,NNE,22,7.4,7.4,63,0.00,,CLR,0.04,VWS V14.01,2013-06-06 23:26:00,
2013-06-06 19:31:00,60.4,47.4,29.85,NNE,22,7.4,7.4,62,0.00,,CLR,0.04,VWS V14.01,2013-06-06 23:31:00,
2013-06-06 19:36:00,60.6,47.5,29.85,NNE,22,7.4,7.4,62,0.00,,CLR,0.04,VWS V14.01,2013-06-06 23:36:00,
2013-06-06 19:41:00,61.3,48.2,29.85,NNE,22,7.4,7.4,62,0.00,,CLR,0.04,VWS V14.01,2013-06-06 23:41:00,
2013-06-06 19:46:00,62.1,48.0,29.85,NNE,22,7.4,7.4,60,0.00,,CLR,0.04,VWS V14.01,2013-06-06 23:46:00,
2013-06-06 19:51:00,62.6,47.2,29.85,NNE,22,7.4,7.4,57,0.00,,CLR,0.04,VWS V14.01,2013-06-06 23:51:00,
2013-06-06 19:56:00,62.2,47.8,29.85,NNE,22,7.4,7.4,59,0.00,,CLR,0.04,VWS V14.01,2013-06-06 23:56:00,
2013-06-06 20:00:00,61.7,46.3,29.85,NNE,22,7.4,7.4,57,0.00,,CLR,0.04,VWS V14.01,2013-06-07 00:00:00,
2013-06-06 20:01:00,61.7,46.8,29.85,NNE,22,7.4,7.4,58,0.00,,CLR,0.04,VWS V14.01,2013-06-07 00:01:00,
2013-06-06 20:07:00,61.0,45.2,29.82,NNE,22,7.4,7.4,56,0.00,,CLR,0.04,VWS V14.01,2013-06-07 00:07:00,
2013-06-06 20:12:00,60.3,44.0,29.82,NNE,22,7.4,7.4,55,0.00,,CLR,0.04,VWS V14.01,2013-06-07 00:12:00,
2013-06-06 20:18:00,59.7,44.0,29.85,NNE,22,7.4,7.4,56,0.00,,CLR,0.04,VWS V14.01,2013-06-07 00:18:00,
2013-06-06 20:23:00,59.5,44.8,29.85,NNE,22,7.4,7.4,58,0.00,,CLR,0.04,VWS V14.01,2013-06-07 00:23:00,
2013-06-06 20:28:00,59.4,44.6,29.85,NNE,22,7.4,7.4,58,0.00,,CLR,0.04,VWS V14.01,2013-06-07 00:28:00,
2013-06-06 20:33:00,59.2,44.9,29.88,NNE,22,7.4,7.4,59,0.00,,CLR,0.04,VWS V14.01,2013-06-07 00:33:00,
2013-06-06 20:39:00,59.0,45.2,29.88,NNE,22,7.4,7.4,60,0.00,,CLR,0.04,VWS V14.01,2013-06-07 00:39:00,
2013-06-06 20:44:00,58.5,45.5,29.88,NNE,22,7.4,7.4,62,0.00,,CLR,0.04,VWS V14.01,2013-06-07 00:44:00,
2013-06-06 20:49:00,58.5,45.9,29.82,NNE,22,7.4,7.4,63,0.00,,CLR,0.04,VWS V14.01,2013-06-07 00:49:00,
2013-06-06 20:55:00,58.6,43.0,29.82,NNE,22,7.4,7.4,56,0.00,,CLR,0.04,VWS V14.01,2013-06-07 00:55:00,
2013-06-06 21:00:00,58.8,43.2,29.82,NNE,22,7.4,7.4,56,0.00,,CLR,0.04,VWS V14.01,2013-06-07 01:00:00,
2013-06-06 21:05:00,58.8,43.6,29.85,NNE,22,7.4,7.4,57,0.00,,CLR,0.04,VWS V14.01,2013-06-07 01:05:00,
2013-06-06 21:10:00,58.5,42.8,29.85,NNE,22,7.4,7.4,56,0.00,,CLR,0.04,VWS V14.01,2013-06-07 01:10:00,
2013-06-06 21:15:00,58.5,42.8,29.85,NNE,22,7.4,7.4,56,0.00,,CLR,0.04,VWS V14.01,2013-06-07 01:15:00,
2013-06-06 21:20:00,58.3,43.1,29.85,NNE,22,7.4,7.4,57,0.00,,CLR,0.04,VWS V14.01,2013-06-07 01:20:00,
2013-06-06 21:25:00,58.1,43.4,29.85,NNE,22,7.4,7.4,58,0.00,,CLR,0.04,VWS V14.01,2013-06-07 01:25:00,
2013-06-06 21:30:00,58.1,43.4,29.85,NNE,22,7.4,7.4,58,0.00,,CLR,0.04,VWS V14.01,2013-06-07 01:30:00,
2013-06-06 21:35:00,57.9,44.1,29.85,NNE,22,7.4,7.4,60,0.00,,CLR,0.04,VWS V14.01,2013-06-07 01:35:00,
2013-06-06 21:40:00,57.7,44.4,29.85,NNE,22,7.4,7.4,61,0.00,,CLR,0.04,VWS V14.01,2013-06-07 01:40:00,
2013-06-06 21:45:00,57.6,44.2,29.85,NNE,22,7.4,7.4,61,0.00,,CLR,0.04,VWS V14.01,2013-06-07 01:45:00,
2013-06-06 21:51:00,57.7,43.5,29.85,NNE,22,7.4,7.4,59,0.00,,CLR,0.04,VWS V14.01,2013-06-07 01:51:00,
2013-06-06 21:56:00,57.7,43.1,29.85,NNE,22,7.4,7.4,58,0.00,,CLR,0.04,VWS V14.01,2013-06-07 01:56:00,
2013-06-06 22:00:00,57.7,43.1,29.85,NNE,22,7.4,7.4,58,0.00,,CLR,0.04,VWS V14.01,2013-06-07 02:00:00,
2013-06-06 22:01:00,57.7,43.1,29.85,NNE,22,7.4,7.4,58,0.00,,CLR,0.04,VWS V14.01,2013-06-07 02:01:00,
2013-06-06 22:06:00,57.6,42.9,29.85,NNE,22,7.4,7.4,58,0.00,,CLR,0.04,VWS V14.01,2013-06-07 02:06:00,
2013-06-06 22:11:00,57.6,42.9,29.85,NNE,22,7.4,7.4,58,0.00,,CLR,0.04,VWS V14.01,2013-06-07 02:11:00,
2013-06-06 22:16:00,57.4,43.2,29.85,NNE,22,7.4,7.4,59,0.00,,CLR,0.04,VWS V14.01,2013-06-07 02:16:00,
2013-06-06 22:21:00,57.2,43.5,29.85,NNE,22,7.4,7.4,60,0.00,,CLR,0.04,VWS V14.01,2013-06-07 02:21:00,
2013-06-06 22:26:00,57.0,44.1,29.85,NNE,22,7.4,7.4,62,0.00,,CLR,0.04,VWS V14.01,2013-06-07 02:26:00,
2013-06-06 22:31:00,56.8,44.0,29.85,NNE,22,7.4,7.4,62,0.00,,CLR,0.04,VWS V14.01,2013-06-07 02:31:00,
2013-06-06 22:36:00,56.7,43.8,29.85,NNE,22,7.4,7.4,62,0.00,,CLR,0.04,VWS V14.01,2013-06-07 02:36:00,
2013-06-06 22:41:00,56.7,43.8,29.85,NNE,22,7.4,7.4,62,0.00,,CLR,0.04,VWS V14.01,2013-06-07 02:41:00,
2013-06-06 22:46:00,56.5,44.0,29.85,NNE,22,7.4,7.4,63,0.00,,CLR,0.04,VWS V14.01,2013-06-07 02:46:00,
2013-06-06 22:51:00,56.5,44.0,29.88,NNE,22,7.4,7.4,63,0.00,,CLR,0.04,VWS V14.01,2013-06-07 02:51:00,
2013-06-06 22:56:00,56.7,44.2,29.88,NNE,22,7.4,7.4,63,0.00,,CLR,0.04,VWS V14.01,2013-06-07 02:56:00,
2013-06-06 23:00:00,56.7,44.6,29.88,NNE,22,7.4,7.4,64,0.00,,CLR,0.04,VWS V14.01,2013-06-07 03:00:00,
2013-06-06 23:01:00,56.7,44.6,29.88,NNE,22,7.4,7.4,64,0.00,,CLR,0.04,VWS V14.01,2013-06-07 03:01:00,
2013-06-06 23:06:00,56.8,44.4,29.85,NNE,22,7.4,7.4,63,0.00,,CLR,0.04,VWS V14.01,2013-06-07 03:06:00,
2013-06-06 23:11:00,56.7,44.2,29.85,NNE,22,7.4,7.4,63,0.00,,CLR,0.04,VWS V14.01,2013-06-07 03:11:00,
2013-06-06 23:17:00,56.7,44.2,29.85,NNE,22,7.4,7.4,63,0.00,,CLR,0.04,VWS V14.01,2013-06-07 03:17:00,
2013-06-06 23:22:00,56.5,44.5,29.85,NNE,22,7.4,7.4,64,0.00,,CLR,0.04,VWS V14.01,2013-06-07 03:22:00,
2013-06-06 23:27:00,56.3,44.7,29.85,NNE,22,7.4,7.4,65,0.00,,CLR,0.04,VWS V14.01,2013-06-07 03:27:00,
2013-06-06 23:32:00,56.3,45.5,29.85,NNE,22,7.4,7.4,67,0.00,,CLR,0.04,VWS V14.01,2013-06-07 03:32:00,
2013-06-06 23:37:00,56.1,46.1,29.85,NNE,22,7.4,7.4,69,0.00,,CLR,0.04,VWS V14.01,2013-06-07 03:37:00,
2013-06-06 23:42:00,56.1,46.1,29.85,NNE,22,7.4,7.4,69,0.00,,CLR,0.04,VWS V14.01,2013-06-07 03:42:00,
2013-06-06 23:47:00,56.1,46.1,29.85,NNE,22,7.4,7.4,69,0.00,,CLR,0.04,VWS V14.01,2013-06-07 03:47:00,
2013-06-06 23:52:00,55.9,45.5,29.85,NNE,22,7.4,7.4,68,0.00,,CLR,0.04,VWS V14.01,2013-06-07 03:52:00,
2013-06-06 23:57:00,55.9,45.9,29.85,NNE,22,7.4,7.4,69,0.00,,CLR,0.04,VWS V14.01,2013-06-07 03:57:00,